Regional Weather Roundup
Issued by NWS

Home | Current Version | Previous Version | Text Only | Print | Product List | Glossary On
Versions: 1 2 3 4 5 6 7 8 9 10 11 12 13 14 15 16 17 18 19 20 21 22 23 24 25 26 27 28 29 30 31 32 33 34 35 36 37 38 39 40 41 42 43 44 45 46 47 48 49 50
000
ASUS44 KJAN 202110
RWRMS

MISSISSIPPI HOURLY WEATHER ROUNDUP
NATIONAL WEATHER SERVICE JACKSON MS
400 PM CDT MON OCT 20 2014

NOTE: "FAIR: INDICATES FEW OR NO CLOUDS BELOW 12,000 FEET WITH NO
SIGNIFICANT WEATHER AND/OR OBSTRUCTIONS TO VISIBILITY.

MSZ001>002-007>008-010>013-018>021-025>028-034>036-202200-
NORTHWEST MISSISSIPPI

CITY           SKY/WX    TMP DP  RH WIND       PRES   REMARKS
CLARKSDALE     FAIR      72  50  46 CALM      30.04S
CLEVELAND      FAIR      73  51  45 NW3       30.02F
GREENWOOD      SUNNY     74  49  41 W3        30.03S
GREENVILLE     SUNNY     74  49  41 NW9       30.03S
GRENADA          N/A    N/A N/A N/A MISG        N/A
OLIVE BRANCH   PTSUNNY   70  52  52 W6        30.03S
OXFORD         FAIR      68  48  49 W3        30.04S
TUNICA         PTCLDY    70  50  49 CALM      30.03F
$$

MSZ003>006-009-014>017-022>024-029>033-037>039-202200-
NORTHEAST MISSISSIPPI

CITY           SKY/WX    TMP DP  RH WIND       PRES   REMARKS
COLUMBUS AFB   NOT AVBL
CORINTH        CLOUDY    70  48  46 CALM      30.01F
GOLDN TRIANGLE SUNNY     75  46  35 NE3       30.01F
STARKVILLE     FAIR      72  46  40 N3        30.01F
TUPELO         MOSUNNY   73  48  41 W5        30.01F
$$

MSZ040-058-202200-
CENTRAL MISSISSIPPI

CITY           SKY/WX    TMP DP  RH WIND       PRES   REMARKS
JACKSON INTL   MOSUNNY   76  46  34 NW5       30.02F
JACKSON HAWKNS SUNNY     76  46  34 W5        30.03S
MERIDIAN KEY   MOSUNNY   75  47  36 N5        30.01S
MERIDIAN NAS   PTSUNNY   74  49  41 W3        30.01F
RAYMOND        FAIR      75  72  88 N6        30.02F
VICKSBURG      SUNNY     76  49  38 E3        30.03F
$$

MSZ059>079-202200-
SOUTH MISSISSIPPI

CITY           SKY/WX    TMP DP  RH WIND       PRES   REMARKS
BROOKHAVEN     FAIR      75  48  38 N6        30.03F
COLUMBIA         N/A    N/A N/A N/A MISG        N/A
HATTIESBURG    SUNNY     77  47  34 VRB5      30.01F
MCCOMB         MOSUNNY   75  50  41 CALM      30.01F
NATCHEZ        MOSUNNY   73  48  40 NW6       30.03S
PINE BELT      SUNNY     75  45  33 N6        30.03F
$$

MSZ080>082-202200-
COASTAL MISSISSIPPI

CITY           SKY/WX    TMP DP  RH WIND       PRES   REMARKS
BAY ST LOUIS   SUNNY     79  45  29 VRB3      30.00S
BILOXI         SUNNY     79  53  40 SW7       29.98F
PASCAGOULA     SUNNY     79  47  32 CALM      29.98F
GULFPORT       MOSUNNY   79  48  33 N3        29.98F
$$



USA.gov is the U.S. government's official web portal to all federal, state and local government web resources and services.